GW3940 Weather Reports


Display with metric or nautical units.
time (UTC)temp
F
wind
direction
speed
MPH
gust
MPH
rain 1hr
in
rain 24hr
in
rain mn
in
humidity
%
barometer
mb
20260505210356 75 210 2.0 2.0 0.00 0.00 0.00 28 1012.0
20260505205852 75 129 4.0 4.0 0.00 0.00 0.00 28 1012.0
20260505205351 76 15 4.0 8.0 0.00 0.00 0.00 27 1012.0
20260505204847 74 10 8.0 10.0 0.00 0.00 0.00 30 1011.7
20260505204345 74 269 3.0 3.0 0.00 0.00 0.00 36 1011.9
20260505203842 75 32 2.0 3.0 0.00 0.00 0.00 27 1012.0
20260505203338 75 331 7.0 9.0 0.00 0.00 0.00 30 1012.0
20260505202835 76 89 3.0 3.0 0.00 0.00 0.00 29 1012.0
20260505202331 75 331 4.0 4.0 0.00 0.00 0.00 31 1012.1
20260505201828 73 334 1.0 1.0 0.00 0.00 0.00 32 1012.2
20260505201325 74 348 8.0 9.0 0.00 0.00 0.00 34 1012.2
20260505200823 73 354 4.0 4.0 0.00 0.00 0.00 37 1012.3
20260505200320 73 36 3.0 3.0 0.00 0.00 0.00 30 1012.5
20260505195815 74 343 4.0 6.0 0.00 0.00 0.00 32 1012.6
20260505195313 73 2 9.0 11.0 0.00 0.00 0.00 34 1012.1
20260505194810 73 328 6.0 8.0 0.00 0.00 0.00 33 1012.2
20260505194307 74 340 9.0 10.0 0.00 0.00 0.00 33 1012.2
20260505193802 73 114 2.0 2.0 0.00 0.00 0.00 32 1012.3
20260505193300 72 347 11.0 15.0 0.00 0.00 0.00 35 1012.2
20260505192758 72 327 5.0 6.0 0.00 0.00 0.00 37 1012.3
20260505192256 72 354 5.0 7.0 0.00 0.00 0.00 37 1012.3
20260505191753 73 1 5.0 6.0 0.00 0.00 0.00 35 1012.5
20260505191252 73 75 2.0 2.0 0.00 0.00 0.00 35 1012.5
20260505190748 72 338 6.0 8.0 0.00 0.00 0.00 33 1012.5
20260505190243 71 347 1.0 2.0 0.00 0.00 0.00 36 1012.6
20260505185739 71 339 7.0 9.0 0.00 0.00 0.00 35 1012.5
20260505185236 71 294 7.0 8.0 0.00 0.00 0.00 36 1012.5
20260505184732 71 317 2.0 2.0 0.00 0.00 0.00 41 1012.5
20260505184230 70 314 6.0 7.0 0.00 0.00 0.00 40 1012.3
20260505183726 70 321 8.0 9.0 0.00 0.00 0.00 38 1012.6
20260505183224 70 81 2.0 3.0 0.00 0.00 0.00 37 1012.3
20260505182714 69 327 4.0 7.0 0.00 0.00 0.00 42 1012.6
20260505182212 69 336 4.0 6.0 0.00 0.00 0.00 42 1012.8
20260505181708 69 282 6.0 7.0 0.00 0.00 0.00 44 1012.6
20260505181206 68 269 2.0 2.0 0.00 0.00 0.00 43 1012.7
20260505180702 69 345 5.0 6.0 0.00 0.00 0.00 45 1012.8
20260505180159 68 341 1.0 2.0 0.00 0.00 0.00 43 1012.3
20260505175655 67 175 3.0 3.0 0.00 0.00 0.00 43 1012.6
20260505175151 67 225 3.0 3.0 0.00 0.00 0.00 43 1012.6
20260505174648 66 287 0.0 1.0 0.00 0.00 0.00 44 1012.5
20260505174144 66 301 6.0 7.0 0.00 0.00 0.00 44 1012.9
20260505173641 66 309 5.0 6.0 0.00 0.00 0.00 47 1012.7
20260505173138 66 336 3.0 4.0 0.00 0.00 0.00 49 1012.6
20260505172635 66 253 2.0 2.0 0.00 0.00 0.00 45 1012.7
20260505172131 65 26 0.0 1.0 0.00 0.00 0.00 45 1012.8
20260505171626 64 310 1.0 1.0 0.00 0.00 0.00 49 1012.7
20260505171123 63 291 4.0 4.0 0.00 0.00 0.00 52 1012.7
20260505170615 63 309 3.0 3.0 0.00 0.00 0.00 52 1012.8
20260505170111 62 195 2.0 3.0 0.00 0.00 0.00 51 1012.7
20260505165606 62 238 2.0 3.0 0.00 0.00 0.00 51 1012.8
20260505165103 61 232 2.0 3.0 0.00 0.00 0.00 51 1012.7
20260505164558 62 198 3.0 3.0 0.00 0.00 0.00 52 1013.0
20260505164056 61 348 0.0 0.0 0.00 0.00 0.00 51 1012.9
20260505163555 62 285 1.0 1.0 0.00 0.00 0.00 53 1012.9
20260505163051 61 181 1.0 1.0 0.00 0.00 0.00 53 1012.8
20260505162549 61 53 1.0 1.0 0.00 0.00 0.00 52 1013.0
20260505162046 60 3 2.0 3.0 0.00 0.00 0.00 54 1012.9
20260505161543 59 338 2.0 2.0 0.00 0.00 0.00 57 1012.7
20260505161041 60 250 1.0 1.0 0.00 0.00 0.00 59 1013.1
20260505160538 58 319 0.0 0.0 0.00 0.00 0.00 58 1012.9
20260505153015 54 264 0.0 1.0 0.00 0.00 0.00 66 1012.9
20260505152512 54 246 2.0 2.0 0.00 0.00 0.00 65 1012.8
20260505152007 53 220 2.0 2.0 0.00 0.00 0.00 65 1013.0
20260505151502 53 220 1.0 1.0 0.00 0.00 0.00 66 1012.8
20260505151000 53 256 1.0 1.0 0.00 0.00 0.00 66 1012.8
20260505150456 52 259 0.0 0.0 0.00 0.00 0.00 68 1012.8
20260505140427 48 252 1.0 1.0 0.00 0.00 0.00 71 1012.0
20260505124840 44 269 0.0 0.0 0.00 0.00 0.00 81 1011.6
20260505124337 44 269 0.0 0.0 0.00 0.00 0.00 81 1011.6
20260505123833 44 269 0.0 0.0 0.00 0.00 0.00 80 1011.6
20260505123330 44 268 0.0 1.0 0.00 0.00 0.00 80 1011.2
20260505122826 45 270 0.0 0.0 0.00 0.00 0.00 79 1011.6
20260505122323 45 283 0.0 0.0 0.00 0.00 0.00 79 1011.3
20260505121820 45 280 0.0 0.0 0.00 0.00 0.00 79 1011.3
20260505121317 44 228 2.0 2.0 0.00 0.00 0.00 80 1011.2
20260505120813 44 241 1.0 1.0 0.00 0.00 0.00 80 1011.2
20260505120309 44 238 1.0 1.0 0.00 0.00 0.00 80 1011.1
20260505115808 44 263 0.0 1.0 0.00 0.00 0.00 79 1011.1
20260505115306 44 266 0.0 1.0 0.00 0.00 0.00 79 1011.1
20260505114803 44 266 0.0 1.0 0.00 0.00 0.00 79 1011.1
20260505114259 44 242 1.0 1.0 0.00 0.00 0.00 79 1011.3
20260505113756 44 280 1.0 1.0 0.00 0.00 0.00 79 1011.1
20260505113252 44 257 1.0 1.0 0.00 0.00 0.00 78 1011.3
20260505112748 44 270 0.0 0.0 0.00 0.00 0.00 78 1011.2
20260505112246 45 269 1.0 1.0 0.00 0.00 0.00 77 1011.2
20260505111741 45 259 0.0 1.0 0.00 0.00 0.00 76 1011.0
20260505111237 45 269 1.0 1.0 0.00 0.00 0.00 77 1011.1
20260505110733 45 270 0.0 0.0 0.00 0.00 0.00 76 1011.2
20260505110231 45 254 1.0 1.0 0.00 0.00 0.00 75 1011.0
20260505102207 45 249 0.0 1.0 0.00 0.00 0.00 72 1010.9
20260505101705 45 261 1.0 1.0 0.00 0.00 0.00 71 1010.8
20260505101201 45 243 1.0 1.0 0.00 0.00 0.00 70 1010.9
20260505100657 45 253 0.0 1.0 0.00 0.00 0.00 70 1010.9
20260505100154 45 218 1.0 1.0 0.00 0.00 0.00 69 1010.8
20260505095650 45 234 1.0 1.0 0.00 0.00 0.00 69 1011.2
20260505095148 46 275 0.0 0.0 0.00 0.00 0.00 69 1011.1
20260505094643 46 285 0.0 0.0 0.00 0.00 0.00 70 1011.0
20260505094140 46 245 0.0 1.0 0.00 0.00 0.00 70 1010.9
20260505093636 46 262 1.0 1.0 0.00 0.00 0.00 70 1010.9
20260505093134 46 292 0.0 0.0 0.00 0.00 0.00 70 1010.7
20260505092630 46 311 0.0 0.0 0.00 0.00 0.00 69 1011.0
20260505092130 46 317 0.0 0.0 0.00 0.00 0.00 68 1010.9
20260505091626 46 320 0.0 0.0 0.00 0.00 0.00 68 1010.9
20260505091124 47 320 0.0 0.0 0.00 0.00 0.00 67 1010.9
20260505090621 47 320 0.0 0.0 0.00 0.00 0.00 66 1010.8
20260505090119 48 320 0.0 0.0 0.00 0.00 0.00 66 1011.0
20260505085616 48 319 0.0 0.0 0.00 0.00 0.00 65 1011.1
20260505085115 48 285 0.0 0.0 0.00 0.00 0.00 66 1010.8
20260505084612 48 286 0.0 1.0 0.00 0.00 0.00 67 1010.7
20260505084110 48 332 0.0 0.0 0.00 0.00 0.00 66 1010.9
20260505083608 50 332 0.0 0.0 0.00 0.00 0.00 64 1010.8
20260505083104 50 264 0.0 0.0 0.00 0.00 0.00 64 1011.0
20260505082559 50 212 1.0 1.0 0.00 0.00 0.00 64 1011.1
20260505082057 49 203 1.0 1.0 0.00 0.00 0.00 66 1010.9
20260505081553 49 244 1.0 2.0 0.00 0.00 0.00 66 1010.9
20260505081050 48 282 1.0 1.0 0.00 0.00 0.00 68 1010.9
20260505080546 48 313 0.0 0.0 0.00 0.00 0.00 70 1010.8
20260505080044 49 325 0.0 0.0 0.00 0.00 0.00 70 1011.1
20260505075539 47 262 3.0 3.0 0.00 0.00 0.00 73 1010.8
20260505075036 48 202 3.0 3.0 0.00 0.00 0.00 66 1010.8
20260505074533 48 187 2.0 2.0 0.00 0.00 0.00 67 1011.0
20260505074030 47 316 0.0 0.0 0.00 0.00 0.00 72 1010.7
20260505073528 47 308 0.0 0.0 0.00 0.00 0.00 72 1010.9
20260505073026 48 280 0.0 0.0 0.00 0.00 0.00 69 1010.9
20260505072521 50 280 0.0 0.0 0.00 0.00 0.00 64 1010.9
20260505072018 49 274 0.0 0.0 0.00 0.00 0.00 66 1010.9
20260505071513 49 294 0.0 0.0 0.00 0.00 0.00 65 1010.8
20260505071012 49 295 0.0 1.0 0.00 0.00 0.00 65 1010.9
20260505070509 51 156 0.0 0.0 0.00 0.00 0.00 61 1010.8
20260505070005 52 156 0.0 1.0 0.00 0.00 0.00 58 1010.8
20260505065501 50 208 3.0 3.0 0.00 0.00 0.00 61 1010.7
20260505064957 51 186 0.0 0.0 0.00 0.00 0.00 62 1010.7
20260505064454 51 203 1.0 1.0 0.00 0.00 0.00 61 1010.6
20260505063953 50 203 2.0 2.0 0.00 0.00 0.00 62 1010.3
20260505063449 51 72 0.0 0.0 0.00 0.00 0.00 62 1010.3
20260505062945 51 68 0.0 0.0 0.00 0.00 0.00 61 1010.5
20260505062442 52 68 0.0 0.0 0.00 0.00 0.00 60 1010.5
20260505061939 54 68 0.0 0.0 0.00 0.00 0.00 55 1010.5
20260505061437 54 68 0.0 0.0 0.00 0.00 0.00 55 1010.3
20260505060935 53 328 0.0 0.0 0.00 0.00 0.00 58 1010.2
20260505060432 54 321 0.0 0.0 0.00 0.00 0.00 55 1010.2
20260505055928 55 321 0.0 0.0 0.00 0.00 0.00 56 1010.3
20260505055424 56 5 0.0 0.0 0.00 0.00 0.00 52 1010.3
20260505054921 57 5 0.0 1.0 0.00 0.00 0.00 52 1010.5
20260505054418 56 4 0.0 0.0 0.00 0.00 0.00 52 1010.3
20260505053916 56 325 0.0 0.0 0.00 0.00 0.00 52 1010.5
20260505053413 56 326 0.0 0.0 0.00 0.00 0.00 52 1010.2
20260505052910 57 325 0.0 0.0 0.00 0.00 0.00 51 1010.1
20260505052407 58 336 2.0 3.0 0.00 0.00 0.00 49 1010.2
20260505051904 59 331 2.0 2.0 0.00 0.00 0.00 48 1010.2
20260505051401 60 334 4.0 4.0 0.00 0.00 0.00 46 1010.2
20260505050859 60 348 4.0 4.0 0.00 0.00 0.00 46 1010.3
20260505050357 60 341 4.0 4.0 0.00 0.00 0.00 46 1010.3
20260505041325 64 332 6.0 7.0 0.00 0.00 0.00 41 1009.6
20260505040821 64 333 5.0 7.0 0.00 0.00 0.00 41 1009.6
20260505040319 64 318 6.0 7.0 0.00 0.00 0.00 41 1009.6
20260505035816 64 312 8.0 10.0 0.00 0.00 0.00 41 1009.7
20260505035311 64 307 9.0 14.0 0.00 0.00 0.00 41 1009.1
20260505034809 64 312 9.0 13.0 0.00 0.00 0.00 40 1008.8
20260505034305 65 334 4.0 6.0 0.00 0.00 0.00 40 1009.1
20260505033803 65 344 7.0 8.0 0.00 0.00 0.00 38 1009.2
20260505033259 66 336 9.0 10.0 0.00 0.00 0.00 37 1009.1
20260505032758 66 328 7.0 8.0 0.00 0.00 0.00 36 1008.9
20260505032253 66 323 10.0 11.0 0.00 0.00 0.00 35 1008.8
20260505031750 67 333 9.0 11.0 0.00 0.00 0.00 35 1008.7
20260505031246 68 332 9.0 13.0 0.00 0.00 0.00 34 1008.6
20260505030743 68 332 9.0 9.0 0.00 0.00 0.00 34 1008.5
20260505030240 68 343 10.0 11.0 0.00 0.00 0.00 32 1008.4
20260505025735 69 322 7.0 8.0 0.00 0.00 0.00 26 1008.2
20260505025234 70 330 9.0 10.0 0.00 0.00 0.00 26 1008.4
20260505024732 71 350 10.0 10.0 0.00 0.00 0.00 24 1008.1
20260505024229 71 357 9.0 10.0 0.00 0.00 0.00 25 1008.1
20260505023726 71 319 6.0 8.0 0.00 0.00 0.00 25 1007.8
20260505023223 72 335 8.0 13.0 0.00 0.00 0.00 25 1008.0
20260505022720 73 24 8.0 10.0 0.00 0.00 0.00 26 1007.9
20260505022217 73 286 5.0 7.0 0.00 0.00 0.00 27 1007.9
20260505021714 73 329 3.0 3.0 0.00 0.00 0.00 27 1007.8
20260505021211 73 351 6.0 7.0 0.00 0.00 0.00 26 1007.9
20260505020707 73 318 7.0 9.0 0.00 0.00 0.00 27 1007.8
20260505020202 74 352 6.0 7.0 0.00 0.00 0.00 27 1007.7
20260505015700 74 346 8.0 9.0 0.00 0.00 0.00 27 1007.7
20260505015157 74 335 9.0 11.0 0.00 0.00 0.00 26 1007.7
20260505014654 75 5 5.0 6.0 0.00 0.00 0.00 26 1007.8
20260505014150 74 310 5.0 6.0 0.00 0.00 0.00 26 1007.8
20260505013648 75 348 7.0 9.0 0.00 0.00 0.00 25 1007.6
20260505013145 73 16 7.0 8.0 0.00 0.00 0.00 26 1008.0
20260505012643 74 346 5.0 6.0 0.00 0.00 0.00 26 1008.0
20260505012140 74 346 6.0 7.0 0.00 0.00 0.00 26 1007.8
20260505011635 75 0 7.0 10.0 0.00 0.00 0.00 26 1007.7
20260505011128 76 353 17.0 21.0 0.00 0.00 0.00 24 1008.0
20260505010627 77 356 10.0 11.0 0.00 0.00 0.00 24 1007.8
20260505010124 76 349 6.0 6.0 0.00 0.00 0.00 24 1007.7
20260505005620 76 0 6.0 8.0 0.00 0.00 0.00 24 1008.1
20260505005118 77 331 10.0 14.0 0.00 0.00 0.00 24 1007.8
20260505004615 76 343 8.0 10.0 0.00 0.00 0.00 25 1007.9
20260505004112 77 79 6.0 8.0 0.00 0.00 0.00 23 1007.8
20260505003609 77 322 9.0 11.0 0.00 0.00 0.00 25 1007.7
20260505003106 77 355 6.0 7.0 0.00 0.00 0.00 23 1007.9
20260505002601 78 27 7.0 8.0 0.00 0.00 0.00 22 1007.9
20260505002055 78 24 8.0 9.0 0.00 0.00 0.00 22 1007.9
20260505001552 76 345 10.0 13.0 0.00 0.00 0.00 23 1007.6
20260505001049 77 319 9.0 10.0 0.00 0.00 0.00 24 1007.8
20260505000547 76 338 9.0 10.0 0.00 0.00 0.00 23 1008.2
20260505000044 77 27 6.0 7.0 0.00 0.00 0.00 22 1008.0
20260504235540 78 325 3.0 6.0 0.00 0.00 0.00 22 1008.0
20260504235038 76 337 10.0 11.0 0.00 0.00 0.00 22 1008.1
20260504234534 77 321 6.0 7.0 0.00 0.00 0.00 23 1008.1
20260504234031 77 340 11.0 14.0 0.00 0.00 0.00 22 1008.2
20260504233526 77 326 12.0 14.0 0.00 0.00 0.00 23 1008.1
20260504233024 77 357 4.0 4.0 0.00 0.00 0.00 23 1008.1
20260504232521 77 349 6.0 10.0 0.00 0.00 0.00 24 1008.1
20260504232019 78 327 16.0 18.0 0.00 0.00 0.00 24 1008.4
20260504231515 78 1 4.0 6.0 0.00 0.00 0.00 22 1008.2
20260504231011 78 327 5.0 7.0 0.00 0.00 0.00 25 1008.2
20260504230508 77 343 5.0 6.0 0.00 0.00 0.00 24 1008.4
20260504230006 76 333 5.0 6.0 0.00 0.00 0.00 25 1008.4
20260504225502 77 338 15.0 17.0 0.00 0.00 0.00 24 1008.5
20260504225000 77 4 3.0 4.0 0.00 0.00 0.00 24 1008.5
20260504224456 77 44 4.0 6.0 0.00 0.00 0.00 22 1008.5
20260504223953 77 337 5.0 7.0 0.00 0.00 0.00 24 1008.8
20260504223450 78 16 2.0 3.0 0.00 0.00 0.00 22 1008.5
20260504222945 79 354 7.0 8.0 0.00 0.00 0.00 24 1008.8
20260504222444 79 358 6.0 10.0 0.00 0.00 0.00 20 1008.8
20260504221941 77 47 2.0 3.0 0.00 0.00 0.00 23 1008.7
20260504221438 76 327 5.0 6.0 0.00 0.00 0.00 24 1008.8
20260504220934 77 328 18.0 21.0 0.00 0.00 0.00 21 1009.1
20260504220431 77 358 6.0 8.0 0.00 0.00 0.00 22 1009.1
20260504215928 78 343 1.0 1.0 0.00 0.00 0.00 22 1009.0
20260504215425 77 8 6.0 9.0 0.00 0.00 0.00 22 1008.8
20260504214921 76 353 8.0 9.0 0.00 0.00 0.00 22 1008.9
20260504214418 78 40 8.0 13.0 0.00 0.00 0.00 22 1009.0
20260504213915 78 342 8.0 10.0 0.00 0.00 0.00 23 1008.8
20260504213410 76 326 6.0 8.0 0.00 0.00 0.00 26 1008.9
20260504212909 76 342 6.0 9.0 0.00 0.00 0.00 25 1009.1
20260504212404 77 353 6.0 7.0 0.00 0.00 0.00 24 1009.4
20260504211902 76 307 5.0 8.0 0.00 0.00 0.00 27 1009.2
20260504211358 77 0 7.0 8.0 0.00 0.00 0.00 24 1009.6
20260504210855 75 352 5.0 6.0 0.00 0.00 0.00 27 1009.5